Flag for U.S.A. Weather past 2 weeks in Olathe, Kansas, U.S.A.

Now
47 °F

Clear.


Feels Like: 41 °F
Forecast: 40 / 49 °F
Wind: 13 mph from Southwest

Location: Johnson County Executive Airport

Current Time: Dec 26, 2014 at 4:15:05 AM

Latest Report: Dec 26, 2014 at 3:53 AM


Visibility: 10 mi

Pressure: 29.84 "Hg

Humidity: 56%

Dew point: 32 °F

Location of OlatheLocation

Historic Weather in Olathe — Graph

°F

Olathe temperature yesterday

Maximum temperature yesterday: 53 °F (at 1:53 PM)
Minimum temperature yesterday: 30 °F (at 5:53 AM)
Average temperature yesterday: 42 °F

Past Weeks' High & Low Weather Summary

 TemperatureHumidityPressure
High62 °F (Dec 14, 1:53 PM)100% (Dec 11, 2:53 AM)30.38 "Hg (Dec 11, 2:53 AM)
Low25 °F (Dec 17, 3:53 AM)40% (Dec 25, 3:53 PM)29.43 "Hg (Dec 22, 2:53 PM)
Average39 °F87%30.01 "Hg
* Reported Dec 11 2:53 AM — Dec 26 2:53 AM, Olathe, Weather by CustomWeather, © 2014

Note: Actual official high and low records may vary slightly from our data, if they occured in-between our weather recording intervals... More about our weather records

Advertising

Olathe weather history for previous 24 hours

 ConditionsComfort  
Time TempWeatherWind HumidityBarometerVisibility
2:53 AM
Dec 26
47 °FClear.13 mph56%29.84 "Hg10 mi
1:53 AM47 °FClear.13 mph54%29.81 "Hg10 mi
12:53 AM47 °FClear.10 mph54%29.80 "Hg10 mi
11:53 PM
Dec 25
47 °FClear.15 mph52%29.80 "Hg10 mi
10:53 PM48 °FClear.16 mph50%29.79 "Hg10 mi
9:53 PM49 °FClear.13 mph48%29.79 "Hg10 mi
8:53 PM50 °FClear.17 mph46%29.79 "Hg10 mi
7:53 PM50 °FClear.17 mph46%29.77 "Hg10 mi
6:53 PM50 °FClear.14 mph46%29.75 "Hg10 mi
5:53 PM50 °FClear.17 mph44%29.73 "Hg10 mi
4:53 PM50 °FSunny.22 mph43%29.71 "Hg10 mi
3:53 PM52 °FSunny.25 mph40%29.69 "Hg10 mi
2:53 PM52 °FSunny.23 mph41%29.69 "Hg10 mi
1:53 PM53 °FSunny.22 mph41%29.69 "Hg10 mi
12:53 PM51 °FSunny.26 mph42%29.73 "Hg10 mi
11:53 AM48 °FSunny.20 mph46%29.77 "Hg10 mi
10:53 AM44 °FSunny.20 mph58%29.82 "Hg10 mi
9:53 AM38 °FSunny.17 mph70%29.83 "Hg10 mi
8:53 AM35 °FSunny.16 mph75%29.81 "Hg10 mi
7:53 AM33 °FSunny.15 mph78%29.83 "Hg10 mi
6:53 AM32 °FClear.14 mph82%29.82 "Hg10 mi
5:53 AM30 °FClear.10 mph89%29.81 "Hg10 mi
4:53 AM31 °FClear.9 mph89%29.81 "Hg10 mi
Weather by CustomWeather, © 2014

See weather overviewHow to use our weather pages